Airfield :
LOGIN :

Register | Disclaimer

   EN    FR    IT 

 










Legend :    VFR   Marginal VFR   IFR   Intensive IFR   Very Intensive IFR
Visi :
Ceiling :
>= 8 km
>= 3000ft
5 to 8 km
1000 to 3000 ft
1500m to 5 km
500 to 1000 ft
800 to 1500m
200 to 500 ft
< 800m
< 200 ft
Symbols :   Thunderstorms  Fog  Heavy snow  Heavy precipitations  Wind > 20 kt
SIGMETs :     Misc.  Thunderstorms  Icing  Turbulence  Mountain Waves  Volcanic Ashes







- Airport Elevation : 277 ft
- IATA code : JER
- Download approach charts


EGJJ - Jersey

CURRENT METAR :
  • 162120Z AUTO 13010KT 9999 NCD 09/07 Q1020

EXPIRED METARs :
  • 162050Z AUTO 13011KT 9999 NCD 09/07 Q1021
  • 162020Z 13012KT CAVOK 09/07 Q1021
  • 161950Z 14012KT CAVOK 09/07 Q1021
  • 161920Z 14011KT CAVOK 10/07 Q1021
  • 161850Z 14012KT CAVOK 10/07 Q1021

TAF TAF EGJJ
Valid from the 16 at 21:00 until the 17 at 06:00 UTC


161954Z 1621/1706 15012KT CAVOK
PROB30
TEMPO 1621/1706 6000 HZ
BECMG 1700/1703 15015G25KT
ATIS : +44 1534 498 073
No reported NOTAMs for that airfield.



MET'MAP, your aeronautical weather chart ! - Copyright ORBIFLY December 2007 - Disclaimer

ORBIFLY MET'MAP TEAM :

Programming & Development : Alexandra Zaïnal
Concept & Development : Baudouin d'Aumeries
Co-Development & Prog : Marc-Olivier Méhu
Technical & hardware support : Manuel Goepfert

Contact : metmap@orbifly.com




SOURCES & CREDITS :

   NOAA